[[{"header":{"parameterUnit":"m.s-1","parameterCategory":1,"la1":30.2991,"la2":30.254,"lo1":-89.0895,"lo2":-89.0444,"dy":0.0017,"dx":0.0017,"nx":28,"ny":28,"refTime":"2023-07-28T21:00:00:Z","depth":0,"parameterNumber":2,"parameterNumberName":"U-component_of_WINDS"},"data":[0,0,0,0,0,0,0,0,0,0,0,0,0,0,0,0,0,0,0,0,0,0,0,0,0,0,0,0,0,0,0,0,0,0,0,0,0,0,0,0,0,0,0,0,0,0,0,0,0,0,0,0,0,0,0,0,0,0,2.4418,2.442,0,2.4575,2.4576,2.4578,2.4614,2.4613,2.4612,2.4611,2.477,2.4776,2.4781,0,0,0,0,0,0,0,0,0,0,0,0,0,2.4148,2.4153,2.4418,2.442,2.4422,2.4574,2.4576,2.4579,2.4614,2.4613,2.4611,2.461,2.4769,2.4775,2.4781,0,0,0,0,0,0,0,0,0,0,0,0,0,2.4281,2.4155,2.4418,2.4458,2.4463,2.4574,2.4577,2.4579,2.4614,2.4613,2.4611,2.4609,2.4767,2.4774,2.4782,2.4864,0,0,2.4806,2.481,0,0,0,0,0,0,0,0,2.4274,2.4291,2.445,2.4455,2.4461,2.4573,2.454,2.4675,2.4615,2.4557,2.4611,2.4609,2.4706,2.4719,2.4752,2.4871,2.4878,2.4807,2.4812,2.4815,2.4817,0,0,0,0,0,0,0,2.4264,2.4285,2.448,2.4452,2.4459,2.4468,2.4485,2.4566,2.4639,2.4562,2.4565,2.4583,2.4709,2.4744,2.4756,2.488,2.4807,2.4814,2.4819,2.4822,2.5073,2.5075,0,0,0,0,0,0,2.4248,2.4277,2.4475,2.4485,2.4362,2.4474,2.4493,2.4539,2.4638,2.4651,2.4584,2.4584,2.4731,2.4746,2.4761,2.4862,2.4815,2.4823,2.4827,2.5071,2.5073,2.5075,0,0,0,0,0,0,2.4242,2.4266,2.4469,2.4382,2.4408,2.448,2.4531,2.4543,2.4578,2.4655,2.4668,2.4607,2.4731,2.475,2.4838,2.4868,2.4826,2.4833,2.5069,2.5072,2.5074,2.5064,0,0,0,0,0,0,2.4234,2.4263,2.4295,2.4382,2.4413,2.4542,2.4533,2.4547,2.4592,2.4593,2.4679,2.4692,2.4731,2.4826,2.4845,2.4878,2.4839,2.5066,2.507,2.5073,2.5062,2.5066,2.507,0,0,0,0,0,2.4225,2.4287,2.4297,2.4321,2.4454,2.4544,2.4562,2.4605,2.4594,2.4626,2.4675,2.4689,2.4862,2.4834,2.4857,2.4892,2.5064,2.5069,2.5073,2.506,2.5065,2.507,0,0,0,0,0,0,2.4201,2.4299,2.4311,2.4403,2.4465,2.455,2.4592,2.4609,2.4676,2.4674,2.4725,2.4744,2.4828,2.4869,2.4837,2.4976,2.4963,2.4972,2.4945,2.4951,2.4955,2.4942,2.4846,0,0,0,0,0,2.4207,2.4272,2.4354,2.4427,2.4457,2.4519,2.456,2.4588,2.4654,2.4681,2.4736,2.48,2.4868,2.4912,2.4979,2.5069,2.5087,2.5104,2.5108,2.5111,2.5118,2.5166,2.5174,2.5089,2.5089,2.5089,0,0,2.4219,2.428,2.4319,2.4424,2.4475,2.4541,2.4541,2.4611,2.466,2.4691,2.4776,2.482,2.4894,2.4982,2.5023,2.5019,2.5145,2.5116,2.5118,2.5123,2.5171,2.5179,2.5186,2.5092,2.5092,2.5091,0,0,2.4274,2.4328,2.4394,2.4445,2.4523,2.4564,2.4579,2.4662,2.4692,2.4778,2.4802,2.4861,2.4979,2.503,2.5071,2.5145,2.516,2.5166,2.5186,2.5232,2.5239,2.5245,2.5269,2.5278,2.5173,2.5173,2.5173,0,2.4279,2.4379,2.4425,2.4494,2.4539,2.4571,2.4637,2.4685,2.478,2.481,2.4804,2.495,2.5003,2.5102,2.512,2.5153,2.5172,2.5155,2.5234,2.5241,2.5247,2.5271,2.528,2.5173,2.5173,2.5173,2.5173,0,2.4381,2.445,2.4494,2.4585,2.4635,2.4702,2.4757,2.4803,2.4826,2.4867,2.4954,2.5018,2.5098,2.5124,2.5148,2.5227,2.5221,2.5224,2.5212,2.5254,2.5277,2.5287,2.5173,2.5173,2.5173,2.5173,0,0,2.4424,2.454,2.4555,2.4596,2.4684,2.4738,2.4806,2.4885,2.4921,2.4986,2.5044,2.5142,2.5145,2.5192,2.5222,2.5263,2.5315,2.5261,2.5263,2.5267,2.5403,2.5398,2.5408,2.5326,2.5328,2.5329,2.5396,0,2.4488,2.4611,2.4654,2.4755,2.4819,2.485,2.4909,2.4969,2.5009,2.5068,2.5113,2.5181,2.5181,2.5209,2.5251,2.5299,2.5342,2.5295,2.5378,2.538,2.5356,2.5421,2.5417,2.5477,2.5405,2.5407,2.5408,0,2.4579,2.4645,2.4752,2.4831,2.486,2.4912,2.4986,2.5043,2.5111,2.5138,2.519,2.5217,2.5288,2.5273,2.5371,2.5338,2.5375,2.5403,2.5407,2.5415,2.5395,2.5428,2.5497,2.5505,2.5423,2.5422,2.5421,0,2.4598,2.4713,2.4792,2.4827,2.4921,2.4957,2.4998,2.5065,2.5109,2.5174,2.5202,2.5275,2.5314,2.537,2.5415,2.54,2.5509,2.5497,2.5531,2.553,2.5551,2.5549,2.5625,2.5578,2.5578,2.5578,2.5577,0,2.4664,2.4727,2.4801,2.4849,2.4921,2.497,2.504,2.5083,2.5142,2.5198,2.523,2.5282,2.534,2.54,2.5436,2.5511,2.5529,2.5551,2.556,2.5547,2.5544,2.5571,2.5567,2.558,2.558,2.5579,2.5579,0,2.4695,2.4748,2.4835,2.4918,2.494,2.4989,2.5059,2.5107,2.5149,2.5219,2.5239,2.5304,2.5375,2.5427,2.5519,2.5543,2.5623,2.5633,2.56,2.5604,2.5634,2.5629,2.5728,2.5742,2.5687,2.5687,2.5688,0,2.4733,2.4783,2.487,2.491,2.4951,2.5016,2.5061,2.5111,2.5156,2.5237,2.5274,2.5348,2.5409,2.5522,2.5577,2.5647,2.5658,2.5687,2.5668,2.5654,2.5656,2.5651,2.5656,2.5689,2.569,2.569,2.569,0,2.4793,2.4816,2.488,2.4953,2.5005,2.5065,2.5124,2.5155,2.5216,2.5265,2.5338,2.5386,2.548,2.5552,2.5628,2.5669,2.5689,2.5696,2.5707,2.5694,2.5672,2.5682,2.5605,2.5693,2.5693,2.5692,2.5692,2.5692,2.4828,2.4873,2.4941,2.5011,2.5061,2.5116,2.5164,2.5212,2.5274,2.5354,2.538,2.5456,2.5522,2.5626,2.5668,2.5728,2.5726,2.5743,2.5747,2.575,2.5748,2.5664,2.5742,2.5742,2.5742,2.5742,2.5742,0,2.4888,2.4934,2.4997,2.508,2.5134,2.5149,2.5216,2.526,2.5326,2.5386,2.5446,2.5529,2.5599,2.566,2.5733,2.5768,2.5779,2.5785,2.5782,2.5791,2.5746,2.5728,2.5775,2.5775,2.5775,2.5775,2.5775,2.5775,2.4925,2.5002,2.5033,2.5135,2.518,2.5254,2.5291,2.5341,2.5389,2.5481,2.554,2.5579,2.5639,2.5716,2.5781,2.5797,2.5821,2.5824,2.5842,2.5799,2.5795,2.5791,2.5774,2.583,2.583,2.5882,2.5883,2.5883]},{"header":{"parameterUnit":"m.s-1","parameterCategory":1,"la1":30.2991,"la2":30.254,"lo1":-89.0895,"lo2":-89.0444,"dy":0.0017,"dx":0.0017,"nx":28,"ny":28,"refTime":"2023-07-28T21:00:00:Z","depth":0,"parameterNumber":3,"parameterNumberName":"V-component_of_WINDS"},"data":[0,0,0,0,0,0,0,0,0,0,0,0,0,0,0,0,0,0,0,0,0,0,0,0,0,0,0,0,0,0,0,0,0,0,0,0,0,0,0,0,0,0,0,0,0,0,0,0,0,0,0,0,0,0,0,0,0,0,5.2131,5.2131,0,5.2117,5.2117,5.2117,5.2089,5.2088,5.2088,5.2087,5.2072,5.2073,5.2073,0,0,0,0,0,0,0,0,0,0,0,0,0,5.2134,5.2134,5.2131,5.2131,5.2131,5.2117,5.2117,5.2117,5.2089,5.2088,5.2087,5.2087,5.2072,5.2073,5.2073,0,0,0,0,0,0,0,0,0,0,0,0,0,5.2128,5.2134,5.2131,5.2115,5.2114,5.2117,5.2117,5.2117,5.2089,5.2088,5.2087,5.2086,5.2072,5.2073,5.2073,5.2091,0,0,5.2073,5.2073,0,0,0,0,0,0,0,0,5.2128,5.2128,5.2118,5.2117,5.2115,5.2104,5.2113,5.2108,5.2089,5.2098,5.2087,5.2086,5.2084,5.2083,5.2082,5.209,5.2089,5.2073,5.2074,5.2074,5.2074,0,0,0,0,0,0,0,5.2129,5.2128,5.2126,5.2118,5.2116,5.2109,5.2107,5.2112,5.2096,5.2098,5.2095,5.2094,5.2083,5.2082,5.2081,5.2089,5.2073,5.2074,5.2074,5.2074,5.211,5.2111,0,0,0,0,0,0,5.2132,5.2129,5.2126,5.2125,5.212,5.211,5.2107,5.2108,5.2096,5.2093,5.2095,5.2093,5.2082,5.2081,5.2081,5.2099,5.2074,5.2074,5.2074,5.2109,5.211,5.2111,0,0,0,0,0,0,5.2132,5.2132,5.2127,5.2127,5.2125,5.211,5.2111,5.2108,5.2108,5.2094,5.2091,5.2097,5.2081,5.2081,5.2088,5.2099,5.2074,5.2074,5.2108,5.2109,5.211,5.2138,0,0,0,0,0,0,5.2132,5.2132,5.2138,5.2127,5.2126,5.2134,5.2112,5.2109,5.2108,5.2105,5.2095,5.2092,5.2081,5.2088,5.2088,5.2098,5.2074,5.2107,5.2109,5.211,5.2136,5.214,5.2143,0,0,0,0,0,5.2132,5.2147,5.2139,5.2139,5.2133,5.2135,5.2134,5.212,5.2109,5.2115,5.2106,5.2093,5.2098,5.2089,5.2089,5.2099,5.2106,5.2108,5.211,5.2134,5.2139,5.2143,0,0,0,0,0,0,5.216,5.2145,5.2136,5.2148,5.2143,5.213,5.2138,5.2126,5.2124,5.2122,5.2105,5.2103,5.2112,5.2107,5.2097,5.2116,5.21,5.2102,5.2118,5.2123,5.2126,5.2126,5.2074,0,0,0,0,0,5.2168,5.217,5.2157,5.2169,5.2167,5.2153,5.2153,5.2143,5.2137,5.2135,5.2127,5.2122,5.2122,5.2122,5.2122,5.2136,5.2132,5.2143,5.2147,5.215,5.2151,5.2157,5.2161,5.2117,5.2117,5.2117,0,0,5.2183,5.2175,5.2178,5.2174,5.2169,5.2172,5.2151,5.2155,5.2157,5.2135,5.2141,5.2136,5.2129,5.2139,5.2143,5.2135,5.2163,5.2152,5.2155,5.2154,5.2159,5.2163,5.2167,5.2118,5.2118,5.2118,0,0,5.2212,5.2207,5.2215,5.2211,5.2203,5.2194,5.2196,5.2186,5.2181,5.2187,5.2171,5.2173,5.2174,5.2169,5.2167,5.2195,5.2182,5.2196,5.2214,5.222,5.2223,5.2226,5.2234,5.2238,5.2198,5.2198,5.2198,0,5.2231,5.2235,5.2221,5.2225,5.2224,5.2205,5.2213,5.221,5.2203,5.2202,5.2193,5.2194,5.2188,5.2196,5.2203,5.2203,5.2204,5.2196,5.2224,5.2227,5.2229,5.2237,5.224,5.2199,5.2199,5.2199,5.2199,0,5.2259,5.2261,5.2269,5.2262,5.2262,5.2269,5.2255,5.2256,5.2247,5.2238,5.2244,5.2237,5.2234,5.2236,5.2227,5.2243,5.2238,5.2227,5.221,5.2235,5.2242,5.2245,5.2201,5.2201,5.22,5.22,0,0,5.2303,5.2289,5.2292,5.2288,5.2279,5.2281,5.2287,5.2284,5.2285,5.2281,5.2285,5.2287,5.2276,5.2274,5.2264,5.2269,5.229,5.2257,5.2257,5.2262,5.2305,5.2312,5.2316,5.2282,5.2282,5.2283,5.2305,0,5.2328,5.2336,5.2324,5.2335,5.2336,5.2319,5.2324,5.2319,5.2312,5.2312,5.2304,5.2305,5.2292,5.229,5.2295,5.2286,5.2298,5.2285,5.2284,5.2284,5.2284,5.232,5.2327,5.2348,5.2308,5.2308,5.2309,0,5.2358,5.2355,5.2366,5.2356,5.2356,5.2361,5.2357,5.2358,5.2352,5.2346,5.2344,5.2332,5.2337,5.2323,5.2328,5.2319,5.2319,5.2314,5.2315,5.2312,5.2296,5.2316,5.2355,5.2357,5.2313,5.2313,5.2312,0,5.2386,5.2386,5.2392,5.239,5.2379,5.2382,5.2378,5.2371,5.237,5.2367,5.2366,5.2364,5.2363,5.2361,5.2349,5.234,5.2356,5.2341,5.235,5.235,5.2352,5.2352,5.2389,5.2355,5.2355,5.2355,5.2355,0,5.2414,5.2421,5.2404,5.2408,5.2415,5.2402,5.2409,5.2403,5.2397,5.2399,5.2385,5.2387,5.2372,5.2372,5.2363,5.2368,5.2368,5.2363,5.236,5.2363,5.2364,5.2361,5.2358,5.2356,5.2356,5.2356,5.2356,0,5.2446,5.2436,5.2441,5.243,5.2428,5.2433,5.2424,5.2427,5.2419,5.2422,5.2421,5.2409,5.2409,5.2398,5.2395,5.2389,5.2397,5.2392,5.2399,5.2396,5.2406,5.2404,5.2441,5.2444,5.241,5.2411,5.2411,0,5.2463,5.2468,5.2458,5.2458,5.2454,5.2455,5.2454,5.2442,5.2441,5.2435,5.2438,5.2437,5.2435,5.2435,5.2426,5.2424,5.2418,5.2431,5.2417,5.242,5.2416,5.2415,5.2414,5.2433,5.2433,5.2434,5.2434,0,5.2495,5.2489,5.2488,5.2485,5.2485,5.2482,5.2478,5.2479,5.2465,5.2466,5.2465,5.2464,5.2461,5.246,5.2456,5.2451,5.244,5.2439,5.244,5.2442,5.2445,5.2442,5.2404,5.2437,5.2437,5.2437,5.2437,5.2436,5.2518,5.2521,5.2515,5.2514,5.251,5.2507,5.2509,5.2502,5.2501,5.2498,5.2491,5.2491,5.2485,5.2479,5.2475,5.2475,5.2468,5.2471,5.2472,5.2472,5.2473,5.2447,5.2475,5.2475,5.2474,5.2474,5.2474,0,5.2547,5.2542,5.2542,5.2537,5.2537,5.2527,5.2523,5.2523,5.2523,5.2519,5.2517,5.2516,5.2515,5.2506,5.2504,5.2505,5.25,5.2505,5.2503,5.2502,5.248,5.2478,5.2509,5.2509,5.2509,5.2509,5.2509,5.2509,5.2562,5.2566,5.256,5.2562,5.2557,5.2558,5.2556,5.2553,5.2549,5.2549,5.2547,5.2542,5.2535,5.2532,5.253,5.2528,5.2527,5.2533,5.2528,5.2507,5.2504,5.2501,5.2498,5.2533,5.2533,5.255,5.2551,5.2551]}]]